Weather History for K3A1 - October, 2012

Change the Weather History Date:

Friday, October 5, 2012

  Actual Average (KHSV) Record (KHSV)
Temperature  
Mean Temperature 66 °F 66 °F  
Max Temperature 79 °F 78 °F 95 °F (1954)
Min Temperature 53 °F 55 °F 37 °F (1968)
Degree Days  
Heating Degree Days 0 2  
Month to date heating degree days 10  
Since 1 July heating degree days 23  
Cooling Degree Days 1 4  
Month to date cooling degree days 21  
Year to date cooling degree days 1891  
Growing Degree Days 16 (Base 50)    
Moisture  
Dew Point 57 °F    
Average Humidity 79    
Maximum Humidity 99    
Minimum Humidity 44    
Precipitation  
Precipitation 0.00 in 0.11 in 2.08 in (1960)
Month to date precipitation 0.56  
Year to date precipitation 40.60  
Snow  
Snow 0.00 in - - ()
Month to date snowfall  
Since 1 July snowfall  
Since 1 September snowfall  
Snow Depth -    
Sea Level Pressure  
Sea Level Pressure 30.15 in    
Wind  
Wind Speed 1 mph (SSW)    
Max Wind Speed 9 mph    
Max Gust Speed -    
Visibility 8 miles    
Events      
T = Trace of Precipitation, MM = Missing Value Source: NWS Daily Summary

Daily Weather History Graph

Daily Weather History Graph

Search for Another Location

Airport or City:

Trip Planner

Search our weather history database for the weather conditions in past years. The results will help you decide how hot, cold, wet, or windy it might be!

Date:

Astronomy

Oct. 05, 2012 Rise Set
Actual Time 6:45 AM CDT 6:25 PM CDT
Civil Twilight 6:20 AM CDT 6:50 PM CDT
Nautical Twilight 5:51 AM CDT 7:19 PM CDT
Astronomical Twilight 5:22 AM CDT 7:48 PM CDT
Moon 10:00 PM CDT (10/5) 11:40 AM CDT (10/5)
Length of Visible Light 12h 30m
Length of Day
11h 40m
Waning Gibbous, 74% of the Moon is Illuminated
Oct 5
Waning Gibbous
Oct 8
Last Quarter
Oct 15
New
Oct 21
First Quarter
Oct 29
Full

Hourly Weather History & Observations

Time (CDT) Temp. Dew Point Humidity Pressure Visibility Wind Dir Wind Speed Gust Speed Precip Events Conditions
12:15 AM 56.5 °F 56.3 °F 99% 30.24 in 5.0 mi Calm Calm - N/A   Clear
12:35 AM 56.3 °F 56.1 °F 99% 30.24 in 5.0 mi Calm Calm - N/A   Clear
12:55 AM 56.3 °F 56.1 °F 99% 30.24 in 3.0 mi Calm Calm - N/A   Clear
1:15 AM 55.9 °F 55.8 °F 99% 30.24 in 5.0 mi Calm Calm - N/A   Clear
1:35 AM 55.8 °F 55.6 °F 99% 30.24 in 5.0 mi Calm Calm - N/A   Clear
1:55 AM 55.6 °F 55.4 °F 99% 30.23 in 5.0 mi Calm Calm - N/A   Clear
2:15 AM 55.4 °F 54.9 °F 98% 30.23 in 5.0 mi Calm Calm - N/A   Clear
2:35 AM 55.4 °F 55.0 °F 99% 30.23 in 5.0 mi Calm Calm - N/A   Clear
3:15 AM 54.9 °F 54.5 °F 99% 30.22 in 5.0 mi Calm Calm - N/A   Clear
3:35 AM 54.9 °F 54.5 °F 99% 30.22 in 5.0 mi Calm Calm - N/A   Clear
3:55 AM 54.5 °F 54.1 °F 99% 30.22 in 5.0 mi Calm Calm - N/A   Clear
4:15 AM 54.5 °F 54.1 °F 99% 30.22 in 5.0 mi Calm Calm - N/A   Clear
4:35 AM 54.3 °F 53.8 °F 98% 30.22 in 5.0 mi Calm Calm - N/A   Clear
4:55 AM 54.3 °F 53.8 °F 98% 30.21 in 5.0 mi Calm Calm - N/A   Clear
5:15 AM 54.3 °F 53.8 °F 98% 30.22 in 7.0 mi Calm Calm - N/A   Clear
5:35 AM 54.0 °F 53.6 °F 99% 30.22 in 7.0 mi NE 3.5 mph - N/A   Clear
5:55 AM 54.0 °F 53.4 °F 98% 30.22 in 7.0 mi Calm Calm - N/A   Clear
6:15 AM 54.0 °F 53.6 °F 99% 30.23 in 7.0 mi Calm Calm - N/A   Clear
6:35 AM 53.8 °F 53.4 °F 99% 30.22 in 5.0 mi Calm Calm - N/A   Clear
6:55 AM 53.6 °F 53.1 °F 98% 30.23 in 5.0 mi Calm Calm - N/A   Clear
7:15 AM 53.8 °F 53.2 °F 98% 30.22 in 5.0 mi Calm Calm - N/A   Clear
7:35 AM 54.9 °F 54.1 °F 97% 30.22 in 5.0 mi Calm Calm - N/A   Clear
7:55 AM 57.2 °F 55.9 °F 96% 30.22 in 5.0 mi Calm Calm - N/A   Clear
8:15 AM 60.6 °F 58.8 °F 94% 30.22 in 7.0 mi Calm Calm - N/A   Clear
8:35 AM 64.2 °F 60.1 °F 86% 30.22 in 10.0 mi Calm Calm - N/A   Clear
8:55 AM 66.6 °F 59.7 °F 79% 30.22 in 10.0 mi Calm Calm - N/A   Clear
9:35 AM 70.0 °F 59.7 °F 70% 30.22 in 10.0 mi ESE 3.5 mph - N/A   Clear
9:55 AM 71.4 °F 59.5 °F 66% 30.21 in 10.0 mi Calm Calm - N/A   Clear
10:15 AM 72.9 °F 59.5 °F 63% 30.21 in 10.0 mi SSE 3.5 mph - N/A   Clear
10:35 AM 73.9 °F 59.9 °F 61% 30.21 in 10.0 mi ESE 3.5 mph - N/A   Clear
11:15 AM 75.6 °F 58.3 °F 55% 30.19 in 10.0 mi Calm Calm - N/A   Clear
11:35 AM 76.6 °F 58.3 °F 53% 30.19 in 10.0 mi SW 5.8 mph - N/A   Scattered Clouds
11:55 AM 77.4 °F 57.4 °F 50% 30.18 in 10.0 mi Calm Calm - N/A   Clear
12:15 PM 77.2 °F 57.4 °F 50% 30.17 in 10.0 mi South 8.1 mph - N/A   Clear
12:35 PM 78.1 °F 57.7 °F 49% 30.16 in 10.0 mi SSW 4.6 mph - N/A   Clear
12:55 PM 78.4 °F 57.7 °F 49% 30.15 in 10.0 mi SSW 8.1 mph - N/A   Clear
1:15 PM 78.6 °F 57.4 °F 48% 30.14 in 10.0 mi SW 9.2 mph - N/A   Clear
1:35 PM 78.8 °F 57.9 °F 49% 30.13 in 10.0 mi South 3.5 mph - N/A   Clear
1:55 PM 79.0 °F 57.7 °F 48% 30.12 in 10.0 mi South 8.1 mph - N/A   Clear
2:15 PM 79.3 °F 57.4 °F 47% 30.11 in 10.0 mi South 6.9 mph - N/A   Clear
2:35 PM 79.7 °F 56.1 °F 44% 30.11 in 10.0 mi WSW 6.9 mph - N/A   Clear
2:55 PM 79.7 °F 55.8 °F 44% 30.11 in 10.0 mi SW 6.9 mph - N/A   Clear
3:15 PM 79.5 °F 55.9 °F 44% 30.10 in 10.0 mi SSW 8.1 mph - N/A   Clear
3:35 PM 79.3 °F 56.8 °F 46% 30.09 in 10.0 mi SW 3.5 mph - N/A   Clear
3:55 PM 79.3 °F 57.9 °F 48% 30.08 in 10.0 mi South 8.1 mph - N/A   Clear
4:15 PM 79.2 °F 57.2 °F 47% 30.07 in 10.0 mi SSW 5.8 mph - N/A   Clear
4:35 PM 79.0 °F 56.8 °F 46% 30.07 in 10.0 mi SW 5.8 mph - N/A   Clear
4:55 PM 78.1 °F 56.7 °F 48% 30.06 in 10.0 mi SSW 5.8 mph - N/A   Clear
5:15 PM 77.5 °F 56.8 °F 49% 30.06 in 10.0 mi SW 4.6 mph - N/A   Clear
5:35 PM 76.6 °F 57.2 °F 51% 30.06 in 10.0 mi Calm Calm - N/A   Clear
5:55 PM 75.2 °F 57.7 °F 54% 30.06 in 10.0 mi SSW 3.5 mph - N/A   Clear
6:15 PM 72.0 °F 59.7 °F 65% 30.06 in 10.0 mi Calm Calm - N/A   Clear
6:35 PM 68.0 °F 60.4 °F 77% 30.06 in 10.0 mi Calm Calm - N/A   Clear
6:55 PM 64.9 °F 60.4 °F 85% 30.06 in 10.0 mi Calm Calm - N/A   Clear
7:15 PM 63.3 °F 60.3 °F 90% 30.05 in 10.0 mi Calm Calm - N/A   Clear
7:35 PM 62.4 °F 59.9 °F 91% 30.05 in 10.0 mi Calm Calm - N/A   Clear
7:55 PM 61.9 °F 60.1 °F 94% 30.05 in 10.0 mi Calm Calm - N/A   Clear
8:15 PM 61.0 °F 59.5 °F 95% 30.05 in 10.0 mi Calm Calm - N/A   Clear
8:35 PM 60.3 °F 59.2 °F 96% 30.06 in 7.0 mi Calm Calm - N/A   Clear
8:55 PM 59.5 °F 58.5 °F 96% 30.06 in 7.0 mi Calm Calm - N/A   Clear
9:15 PM 59.2 °F 58.3 °F 97% 30.07 in 10.0 mi Calm Calm - N/A   Clear
9:35 PM 59.0 °F 58.1 °F 97% 30.08 in 7.0 mi Calm Calm - N/A   Clear
9:55 PM 58.6 °F 57.9 °F 97% 30.07 in 7.0 mi Calm Calm - N/A   Clear
10:15 PM 59.0 °F 58.1 °F 97% 30.08 in 7.0 mi Calm Calm - N/A   Clear
10:35 PM 58.5 °F 57.9 °F 98% 30.08 in 10.0 mi Calm Calm - N/A   Clear
10:55 PM 58.3 °F 57.6 °F 97% 30.09 in 7.0 mi Calm Calm - N/A   Clear
11:35 PM 58.1 °F 57.4 °F 97% 30.08 in 7.0 mi Calm Calm - N/A   Clear
11:55 PM 57.7 °F 57.2 °F 98% 30.07 in 7.0 mi Calm Calm - N/A   Clear